Find Starlink 5800

NORAD ID: 56041 Int'l Des: 2023-042 Owner: SPXS Country: US Constellation: starlink operational
LEOCIRCULAR

Live Position

Loading 3D Globe...

About Starlink 5800

Description loading...

Upcoming Passes

Passes for default location (London). Set your location on the main map for personalized predictions.

Altitude History

Loading altitude history...

Two-Line Element Set

1 56041U 23042BH 26107.18616054 .00001193 00000-0 55462-4 0 9994
2 56041 43.0035 176.3977 0001744 271.0186 89.0465 15.25909320169053
Epoch: Apr 17, 2026 • Age: 11 hours

Current Status

Altitude 491.3 km
Velocity 7.62 km/s
Sub-Earth Point 38.52°N, 149.78°E
Launch Date Mar 24, 2023
Age 3 years
Type internet

Technical Details

Classification Payload
Mass 305.00 kg
Dry Mass 290.00 kg
Total Mass 305.00 kg
Length 0.20 m
Diameter 2.80 m
Span 9.00 m
Shape Box + pan
Manufacturer SPXS
Bus Type Starlink
Phase Status In Orbit
Owner/State SPXS/US

Most Searched